Temperature
25 24 24 25 25 25 25 25 25 25 25 25 24 24 23 23 23 23 23 22 22 21 20 20 19 18 18 17 17 17 17 16 16 16 15 15 15 15 15 15 15 15 15 15
25 24 25 26 26 25 25 24 24 25 25 25 24 24 24 23 23 23 22 22 22 21 20 19 18 18 17 17 17 17 17 16 16 15 15 15 15 14 14 14 14 14 14 14
24 25 26 25 25 25 25 24 24 24 25 25 24 23 23 23 23 23 22 22 22 21 20 19 18 18 17 17 17 17 16 16 15 15 15 14 14 14 14 14 14 14 14 14
25 25 25 25 25 25 24 25 25 24 23 23 23 22 23 23 23 23 22 22 22 21 20 19 18 17 17 17 16 16 16 16 15 15 15 14 14 14 13 13 13 13 13 13
25 25 25 24 25 25 25 25 25 24 23 23 24 23 23 23 22 22 22 22 21 21 20 19 18 17 17 16 16 16 16 15 15 15 14 14 13 13 13 13 13 13 13 13
25 25 25 25 25 25 25 24 24 24 23 22 23 23 23 22 22 22 22 22 21 20 20 19 18 17 16 16 16 16 15 15 15 14 14 14 13 13 13 13 13 12 12 12
24 24 25 25 24 24 24 23 22 21 21 22 24 24 23 23 23 23 22 22 21 20 19 18 17 17 16 16 15 15 15 15 14 14 14 13 13 13 13 12 12 12 12 12
23 23 24 24 24 23 24 23 22 21 22 23 24 23 23 23 23 23 22 22 20 19 19 18 17 16 16 16 15 15 15 14 14 14 14 13 13 13 12 12 12 12 12 12
23 23 24 24 24 24 23 24 24 23 23 22 23 23 23 23 23 23 22 21 20 19 18 18 17 16 16 15 15 15 14 14 14 14 13 13 13 13 12 12 12 11 11 11
24 23 24 24 23 24 24 23 23 22 21 21 23 23 22 22 22 22 22 21 20 19 18 18 17 16 16 15 15 14 14 14 14 13 13 13 13 12 12 12 11 11 11 11
23 23 23 23 22 23 23 23 23 22 22 21 21 22 23 23 22 22 21 21 20 19 18 18 17 16 16 15 15 14 14 14 13 13 13 12 12 12 12 11 11 11 11 11
23 22 22 23 24 24 23 23 22 21 21 22 21 21 24 23 23 22 21 20 19 19 18 17 17 16 15 15 14 14 14 14 13 13 12 12 12 12 11 11 11 11 11 11
22 22 21 22 22 22 22 23 23 22 21 21 20 21 23 22 22 21 21 20 19 18 18 17 16 16 15 15 14 14 14 13 13 13 12 12 12 11 11 11 11 10 10 10
21 21 21 21 21 22 22 22 22 21 20 20 21 21 22 21 21 21 20 19 19 18 17 17 16 15 15 14 14 14 13 13 13 12 12 12 11 11 11 11 10 10 10 10
21 20 21 22 22 22 22 22 22 21 21 20 21 21 21 21 21 20 20 19 18 17 17 16 15 15 15 14 14 13 13 13 12 12 12 12 11 11 11 10 10 10 10 9
21 20 21 21 22 22 22 22 21 21 21 21 21 21 21 21 21 20 19 18 17 17 16 15 15 15 14 14 14 13 13 13 12 12 12 11 11 11 10 10 10 9 9 9
21 20 20 20 21 21 20 21 21 21 21 21 20 20 20 20 20 20 19 18 17 16 16 15 15 14 14 14 13 13 13 12 12 12 11 11 11 10 10 10 9 9 9 9
20 20 19 19 20 19 21 22 21 21 21 20 20 20 20 19 19 18 18 17 17 16 15 15 14 14 13 13 13 13 12 12 12 12 11 11 10 10 10 9 9 9 9 9
20 19 19 19 19 19 20 21 21 20 20 20 20 19 19 18 18 18 17 16 16 15 15 14 14 13 13 13 13 12 12 12 11 11 11 10 10 10 9 9 9 9 9 8
19 19 18 18 18 18 20 20 21 20 18 20 19 19 18 18 16 16 16 16 15 15 14 14 13 13 13 12 12 12 11 11 11 11 10 10 10 9 9 9 9 8 8 8
18 18 17 17 18 19 20 20 20 18 18 19 19 18 18 17 16 16 15 15 14 14 14 13 13 13 12 12 12 11 11 11 11 11 10 10 9 9 9 8 8 8 8 8
18 17 17 17 17 17 19 19 19 18 18 18 18 17 17 16 16 15 14 14 14 13 13 13 12 12 12 11 11 11 11 11 10 10 10 9 9 9 8 8 8 8 8 7
18 18 18 18 18 18 18 18 18 18 18 17 17 16 16 15 15 14 14 13 13 13 13 12 12 11 11 11 11 10 10 10 10 10 9 9 9 8 8 8 7 7 7 7
19 19 18 18 18 18 18 17 17 17 17 16 16 15 15 14 14 14 13 13 12 12 12 11 11 11 11 10 10 10 10 10 9 9 9 9 8 8 8 7 7 7 7 7
17 18 17 17 17 17 17 17 16 16 15 15 15 14 14 14 13 13 12 12 12 11 11 11 10 10 10 10 10 9 9 9 9 9 8 8 8 8 7 7 7 7 7 6
16 16 16 16 17 16 16 15 15 15 14 14 14 13 13 13 12 12 12 11 11 11 10 10 10 9 9 9 9 9 9 9 8 8 8 8 7 7 7 6 6 6 6 6
Wind_Speed
8 7 7 7 7 7 7 6 5 3 6 6 7 6 8 10 9 7 7 7 7 7 7 7 7 6 5 4 3 4 4 4 4 2 2 3 2 3 3 3 5 5 6 6
8 8 7 5 5 6 7 8 6 3 4 5 6 7 7 9 9 7 6 6 6 7 8 8 8 6 5 4 3 4 4 4 4 3 2 2 2 2 2 2 4 5 5 6
9 4 4 6 7 8 8 8 6 4 3 6 6 6 8 9 9 8 6 5 5 6 7 8 7 6 5 4 3 4 4 5 4 3 3 3 3 2 2 2 2 3 4 4
7 5 5 7 8 8 7 5 5 5 5 5 7 5 7 9 8 9 7 5 5 6 7 8 7 7 5 4 3 4 5 5 4 4 4 3 3 2 1 1 2 2 4 4
4 4 6 8 6 6 5 4 6 8 8 9 9 7 4 10 9 9 8 6 5 7 8 8 8 7 5 4 3 3 5 5 5 4 4 3 3 2 1 2 2 2 2 3
6 4 4 4 5 5 4 5 8 8 7 9 10 8 3 7 8 8 9 8 7 7 8 8 8 7 6 5 4 4 5 5 5 4 4 3 3 2 3 2 2 2 2 2
8 8 5 4 6 7 7 6 3 4 6 5 5 5 2 7 6 6 8 8 7 7 7 7 8 7 6 7 5 4 5 5 4 4 3 3 3 2 2 1 1 1 1 1
7 7 8 5 5 4 7 8 5 4 4 2 3 3 4 9 8 6 7 7 8 7 7 7 8 7 6 6 5 4 5 4 4 3 2 2 3 2 2 2 2 2 1 1
5 2 5 5 4 6 6 7 6 7 10 6 3 3 7 8 8 7 7 7 8 8 7 7 8 7 7 6 5 4 4 4 4 3 2 2 3 2 2 2 2 1 1 1
7 5 4 5 4 7 7 6 5 4 4 5 5 3 4 10 9 7 7 7 7 7 8 7 7 7 7 6 5 4 4 4 4 3 2 2 2 2 2 2 2 2 2 2
7 7 4 5 6 7 7 7 6 5 6 4 3 1 3 7 8 7 6 7 6 6 6 6 7 7 7 7 6 5 4 4 3 3 3 3 2 2 2 2 2 1 1 1
5 5 7 6 4 4 5 7 7 5 6 5 5 1 5 6 6 7 6 6 6 5 5 5 6 6 6 6 6 5 4 4 3 3 3 3 3 3 2 2 2 1 1 1
3 5 6 4 3 5 6 7 7 6 6 6 5 1 6 6 6 5 5 6 6 6 5 5 5 5 6 5 5 5 5 4 4 3 3 3 3 3 2 2 2 1 1 1
3 6 8 7 4 3 6 7 7 8 6 7 7 4 3 4 5 4 5 5 6 5 5 5 4 4 5 5 4 4 4 4 4 4 3 3 2 3 2 2 2 1 1 0
4 8 11 11 9 9 9 9 9 10 10 9 7 5 2 1 4 4 4 5 5 5 5 4 4 3 4 4 4 4 4 4 4 4 3 3 2 2 3 2 2 1 0 0
6 7 10 11 11 11 12 11 11 11 11 10 9 6 3 2 2 3 5 4 4 4 4 3 3 2 2 3 3 4 3 4 4 4 4 3 3 2 3 2 2 2 1 1
5 7 9 9 8 9 11 10 10 9 7 7 7 3 1 2 1 2 3 4 3 3 3 3 2 2 2 2 2 2 3 3 3 3 3 3 3 2 2 2 2 2 2 1
7 8 6 7 7 10 3 1 2 4 4 3 3 1 1 2 2 3 3 3 3 4 3 3 2 2 1 2 2 2 2 3 3 3 3 3 3 2 2 2 3 3 2 2
8 8 6 6 8 8 4 3 3 3 3 2 2 1 2 2 1 1 3 4 4 4 4 3 2 1 1 2 2 2 1 2 2 2 2 3 3 3 3 3 3 3 2 2
7 8 7 6 7 7 1 4 2 1 3 2 2 2 2 1 1 1 5 5 4 4 3 3 2 1 1 2 2 2 2 2 2 2 2 2 3 3 3 3 2 1 2 2
6 7 9 9 9 5 1 3 3 3 1 4 3 2 2 1 1 3 4 4 3 3 3 3 2 2 1 2 1 2 2 2 1 1 1 2 2 3 3 2 1 1 1 1
6 5 8 8 8 5 4 3 2 2 5 4 3 3 2 3 4 4 4 3 2 2 2 2 2 1 2 2 2 2 2 1 0 1 2 2 2 2 1 1 1 1 2 2
6 4 3 3 3 2 3 1 2 3 2 3 2 3 3 2 2 2 2 2 1 1 1 1 1 1 1 1 1 1 1 0 1 1 2 1 1 1 1 2 2 1 2 2
5 3 5 5 4 1 1 2 3 3 3 3 3 2 1 0 0 1 1 1 0 0 0 0 1 1 1 1 1 1 0 1 1 2 1 1 1 1 1 1 1 2 2 2
5 4 6 7 5 3 1 0 1 2 2 2 2 1 0 1 1 0 0 0 0 1 1 1 1 1 2 1 1 1 1 1 2 2 1 1 1 2 2 2 1 2 2 3
7 7 7 6 4 3 2 1 1 1 0 1 1 1 1 1 1 1 1 0 1 1 1 1 2 2 2 1 1 1 1 1 2 2 2 2 1 2 2 2 1 1 1 2
Wind_Direction
216 225 235 229 225 257 279 268 254 209 173 206 224 217 191 179 193 197 189 184 175 161 147 136 126 119 117 110 108 103 113 105 95 81 66 73 66 51 45 38 33 26 33 37
227 227 245 263 264 261 268 270 267 213 191 225 239 234 206 185 189 196 203 190 176 160 150 139 129 129 132 127 126 109 103 99 90 81 85 94 90 80 74 39 32 26 35 37
237 228 237 249 242 246 247 258 263 272 239 238 253 247 217 188 184 187 202 194 174 164 153 140 136 136 136 133 136 116 105 98 94 89 75 72 70 61 52 42 27 14 34 45
243 231 243 250 251 254 257 268 275 264 255 254 232 252 217 189 181 180 183 191 171 151 140 139 138 135 137 133 132 120 108 101 97 95 89 91 85 75 53 48 37 22 32 38
239 230 245 250 256 266 277 296 275 260 256 265 245 252 217 169 177 184 182 180 169 145 142 141 136 130 126 124 124 110 104 99 94 94 97 95 89 90 77 60 51 44 35 35
246 238 255 264 263 258 279 266 259 254 253 255 243 233 234 171 177 178 172 171 161 145 139 134 130 129 123 118 117 110 107 102 106 108 112 108 102 96 83 58 57 52 48 35
234 219 218 238 246 222 229 249 253 226 217 237 219 221 192 131 143 155 160 159 151 141 135 132 132 136 132 128 129 125 117 111 112 115 116 117 119 121 114 91 73 59 53 39
240 217 193 199 237 248 229 239 259 276 266 281 225 223 118 115 119 131 142 146 143 138 136 138 137 138 135 129 128 128 124 124 123 122 116 110 111 102 98 88 77 64 61 52
281 214 160 169 225 260 254 247 270 286 291 287 237 166 125 132 134 133 140 140 145 146 144 143 139 144 139 135 135 138 141 137 134 142 136 115 103 93 96 96 83 72 47 27
285 282 191 165 207 230 265 294 284 263 279 279 268 242 168 157 146 145 147 145 145 146 148 144 142 142 138 137 140 148 149 151 147 152 152 116 106 110 100 97 92 85 70 32
272 271 228 186 211 229 221 240 259 273 268 274 287 12 94 137 143 148 144 142 145 146 145 145 147 146 144 145 153 164 163 153 153 150 143 137 134 128 109 95 92 70 71 69
255 275 261 229 205 215 240 247 253 258 274 280 283 289 105 110 119 131 134 134 137 139 137 140 142 144 148 154 160 164 166 161 158 151 153 151 143 140 133 125 119 99 47 19
303 267 264 232 195 202 229 240 255 268 275 271 265 216 124 117 112 117 126 136 139 138 134 133 137 149 153 159 165 167 171 161 151 152 165 164 159 156 152 143 130 122 82 354
299 262 261 266 282 256 238 240 244 250 254 260 261 262 189 142 122 120 129 133 136 137 135 141 148 156 157 161 170 169 165 158 159 162 174 174 173 164 155 142 139 149 137 15
243 257 265 274 281 285 266 255 248 248 251 259 265 276 291 105 125 133 134 135 139 148 149 148 154 157 161 161 172 172 163 161 167 172 178 179 182 160 147 142 146 150 155 281
231 259 270 270 264 268 267 257 248 247 252 256 264 271 308 347 80 122 131 134 145 146 142 140 147 152 163 164 177 168 163 165 172 182 182 172 170 159 154 155 155 167 198 253
228 248 264 266 266 271 260 252 243 241 241 252 256 262 321 312 53 61 118 139 150 145 140 145 161 160 169 176 177 168 168 164 172 178 174 160 159 161 164 172 171 191 201 217
252 254 257 264 262 252 249 137 200 231 237 241 256 272 15 36 54 77 97 126 137 139 139 143 150 146 159 165 160 139 154 166 172 176 173 164 167 170 174 185 199 200 199 211
245 250 255 253 258 261 231 194 189 219 240 221 201 143 86 63 46 97 84 87 99 116 124 126 124 122 157 162 144 140 166 176 184 180 168 170 172 184 194 206 210 201 195 214
232 241 250 253 256 257 219 128 134 209 244 139 152 153 137 126 259 141 86 77 78 99 115 118 125 146 153 133 131 161 189 195 203 184 182 189 185 191 203 205 211 212 193 209
211 224 235 249 254 257 107 121 136 213 155 96 102 108 130 163 50 90 96 83 74 83 108 118 139 147 138 137 154 205 216 216 197 156 177 204 195 198 198 199 193 195 207 219
221 222 226 235 243 245 135 162 194 84 80 75 64 70 83 75 77 84 91 90 89 83 111 133 143 142 142 162 193 227 239 235 117 173 193 214 199 193 189 178 199 196 194 213
234 240 250 234 230 108 131 115 62 59 69 66 60 59 66 80 87 88 93 94 93 84 122 144 157 160 167 176 193 250 266 174 199 216 203 194 183 165 164 174 192 210 209 206
261 259 266 270 262 229 144 81 72 51 32 54 63 57 49 32 95 100 101 87 43 292 216 209 186 196 218 185 185 247 315 239 215 222 212 188 176 158 139 151 180 198 220 220
282 279 266 265 269 290 283 346 47 57 46 42 49 61 11 309 269 167 213 167 312 304 307 272 234 227 243 227 216 192 216 245 238 224 215 189 177 173 171 170 180 190 214 209
265 266 257 260 279 290 306 350 19 26 347 1 49 65 24 335 305 302 284 297 288 278 276 273 262 248 242 227 233 222 206 233 238 222 215 198 190 192 180 171 162 154 190 185
Height
1484 1487 1488 1485 1483 1485 1484 1487 1489 1487 1484 1489 1492 1494 1494 1497 1499 1501 1503 1505 1507 1510 1512 1514 1516 1518 1519 1520 1522 1522 1522 1522 1523 1523 1523 1523 1523 1524 1524 1524 1524 1524 1525 1525
1484 1486 1482 1480 1480 1483 1485 1488 1488 1485 1483 1487 1490 1491 1490 1492 1495 1498 1500 1502 1505 1507 1510 1513 1514 1517 1519 1519 1520 1521 1522 1522 1522 1522 1523 1523 1523 1523 1524 1524 1524 1524 1524 1524
1483 1482 1480 1480 1482 1485 1485 1487 1488 1488 1486 1485 1490 1494 1489 1489 1492 1495 1498 1500 1502 1505 1507 1510 1513 1515 1517 1518 1519 1521 1521 1521 1521 1522 1522 1522 1522 1523 1523 1523 1523 1523 1524 1524
1478 1478 1479 1481 1482 1482 1487 1481 1482 1486 1492 1494 1490 1503 1489 1486 1489 1492 1495 1498 1500 1503 1506 1508 1511 1513 1516 1517 1518 1519 1520 1520 1521 1521 1521 1521 1522 1522 1522 1522 1522 1523 1523 1523
1478 1477 1479 1481 1481 1481 1482 1480 1482 1485 1489 1493 1488 1495 1487 1482 1489 1490 1492 1495 1498 1501 1504 1506 1509 1511 1513 1515 1517 1518 1519 1519 1520 1520 1521 1521 1521 1522 1522 1522 1522 1522 1522 1522
1476 1476 1477 1478 1479 1479 1480 1482 1483 1484 1489 1501 1486 1491 1490 1483 1484 1485 1489 1493 1496 1499 1502 1504 1507 1509 1511 1513 1515 1517 1518 1518 1519 1520 1520 1521 1521 1521 1522 1522 1522 1521 1521 1521
1479 1476 1476 1478 1481 1480 1482 1490 1500 1502 1504 1496 1477 1483 1485 1476 1477 1482 1486 1490 1495 1498 1501 1503 1505 1508 1510 1512 1514 1515 1517 1517 1518 1519 1520 1520 1521 1521 1521 1521 1521 1521 1521 1521
1482 1482 1475 1476 1479 1482 1481 1485 1500 1508 1500 1489 1479 1483 1479 1473 1477 1481 1485 1489 1493 1497 1499 1502 1504 1506 1508 1510 1512 1514 1515 1516 1517 1518 1519 1520 1520 1520 1520 1521 1521 1521 1520 1520
1479 1480 1472 1474 1477 1479 1481 1482 1480 1489 1489 1492 1482 1478 1478 1474 1478 1481 1484 1488 1492 1495 1499 1501 1503 1506 1507 1509 1510 1512 1514 1515 1516 1517 1518 1519 1519 1519 1519 1520 1520 1520 1519 1519
1476 1481 1474 1474 1477 1478 1479 1480 1483 1490 1499 1501 1487 1481 1483 1479 1479 1481 1484 1488 1491 1494 1497 1500 1502 1504 1506 1508 1509 1511 1513 1514 1515 1516 1516 1517 1517 1518 1518 1518 1518 1518 1518 1518
1476 1481 1478 1476 1480 1480 1481 1483 1483 1485 1486 1497 1499 1491 1472 1474 1476 1479 1483 1487 1490 1493 1496 1499 1501 1503 1505 1506 1508 1509 1511 1512 1513 1514 1515 1515 1516 1516 1517 1517 1517 1517 1517 1517
1475 1479 1480 1475 1471 1471 1475 1478 1482 1493 1491 1486 1493 1491 1469 1472 1475 1479 1483 1486 1490 1493 1495 1497 1500 1502 1503 1505 1506 1507 1509 1510 1511 1512 1513 1514 1514 1514 1515 1515 1516 1516 1516 1516
1477 1481 1486 1484 1482 1476 1476 1476 1477 1481 1486 1489 1495 1490 1472 1473 1476 1480 1483 1486 1489 1492 1494 1497 1499 1500 1502 1503 1504 1505 1507 1508 1509 1510 1511 1512 1512 1513 1513 1513 1514 1514 1514 1514
1480 1481 1485 1489 1482 1476 1477 1477 1476 1481 1489 1489 1485 1482 1476 1475 1477 1480 1483 1485 1488 1491 1493 1495 1497 1499 1500 1502 1503 1504 1505 1506 1507 1508 1509 1510 1510 1511 1511 1511 1512 1512 1512 1512
1479 1481 1477 1473 1471 1471 1473 1474 1475 1478 1479 1483 1480 1478 1476 1475 1477 1480 1482 1485 1487 1490 1492 1494 1496 1497 1499 1500 1501 1502 1503 1504 1505 1506 1507 1507 1508 1509 1509 1509 1509 1510 1510 1510
1476 1479 1476 1475 1470 1470 1471 1469 1471 1473 1473 1474 1475 1477 1473 1475 1477 1479 1482 1484 1486 1489 1491 1493 1494 1496 1497 1498 1499 1500 1500 1501 1502 1503 1504 1505 1506 1506 1507 1507 1507 1507 1507 1508
1474 1477 1480 1478 1470 1471 1474 1466 1466 1468 1468 1471 1475 1476 1473 1475 1476 1479 1481 1483 1485 1487 1489 1491 1493 1494 1495 1496 1497 1498 1498 1499 1500 1501 1502 1502 1503 1503 1504 1504 1505 1505 1505 1505
1473 1475 1477 1478 1477 1484 1468 1459 1460 1464 1466 1468 1469 1471 1473 1475 1477 1479 1481 1482 1484 1486 1488 1489 1491 1492 1493 1494 1495 1495 1496 1497 1498 1498 1499 1500 1500 1501 1501 1501 1502 1502 1502 1502
1470 1474 1477 1477 1479 1473 1464 1460 1461 1465 1467 1466 1468 1471 1474 1476 1477 1479 1481 1482 1483 1484 1486 1488 1489 1490 1491 1492 1493 1493 1494 1495 1496 1496 1496 1497 1497 1498 1498 1498 1499 1499 1499 1499
1469 1471 1477 1476 1481 1479 1465 1459 1460 1465 1470 1466 1467 1470 1473 1475 1479 1480 1480 1481 1482 1483 1485 1486 1487 1488 1489 1490 1490 1491 1491 1492 1493 1493 1493 1494 1494 1494 1495 1495 1496 1496 1496 1496
1473 1473 1476 1476 1476 1468 1461 1460 1462 1474 1473 1467 1468 1470 1473 1475 1478 1479 1479 1480 1482 1482 1483 1484 1485 1486 1487 1488 1488 1488 1489 1489 1490 1490 1490 1490 1491 1491 1491 1492 1492 1493 1493 1493
1468 1471 1472 1472 1475 1473 1461 1461 1465 1467 1466 1467 1469 1470 1472 1474 1476 1477 1478 1480 1481 1481 1482 1483 1483 1484 1485 1485 1486 1486 1486 1486 1486 1487 1487 1487 1487 1487 1488 1488 1489 1489 1489 1489
1461 1462 1463 1464 1466 1461 1460 1462 1464 1465 1466 1468 1469 1471 1472 1474 1475 1477 1478 1479 1479 1480 1481 1481 1482 1482 1483 1483 1483 1483 1483 1483 1483 1483 1483 1484 1484 1484 1484 1484 1484 1485 1485 1485
1457 1457 1459 1460 1459 1459 1460 1462 1463 1465 1466 1468 1469 1470 1472 1473 1474 1476 1476 1477 1478 1478 1479 1479 1479 1479 1480 1480 1480 1480 1480 1480 1479 1479 1480 1480 1480 1480 1480 1481 1481 1481 1481 1481
1458 1457 1458 1459 1459 1459 1460 1461 1463 1464 1466 1467 1468 1470 1471 1472 1473 1474 1475 1475 1475 1476 1476 1476 1476 1476 1477 1477 1477 1477 1476 1476 1476 1476 1476 1476 1476 1476 1477 1477 1477 1477 1477 1478
1458 1458 1459 1459 1458 1459 1460 1461 1462 1463 1464 1466 1467 1468 1469 1470 1471 1472 1472 1472 1473 1473 1473 1473 1473 1473 1473 1473 1473 1473 1473 1473 1473 1473 1473 1473 1473 1473 1473 1473 1474 1474 1474 1474